Location: Maccacari
(45.1333°N, 11.1333°E)
Time: 22:00:14
(UTC+00:00)

S-56A Canister/Altair - All Passes

Search period start: 21 January 2021 00:00
Search period end: 31 January 2021 00:00
Orbit: 633 x 2499 km, 38.9° (Epoch: 20 January)

Date Brightness Start Highest point End Pass type
(mag) Time Alt. Az. Time Alt. Az. Time Alt. Az.
21 Jan - 02:41:07 10° SW 02:44:50 26° SSE 02:48:59 10° ESE visible
21 Jan - 04:43:20 10° WSW 04:47:50 44° S 04:53:47 10° ESE visible
21 Jan - 06:46:17 10° W 06:51:18 34° SSW 06:58:18 10° SE daylight
21 Jan - 08:50:58 10° WSW 08:55:05 16° SSW 09:00:05 10° S daylight
22 Jan - 02:08:51 10° SSW 02:12:23 23° SSE 02:16:07 10° ESE visible
22 Jan - 04:11:00 10° WSW 04:15:19 42° S 04:20:46 10° ESE visible
22 Jan - 06:13:55 10° WSW 06:18:41 35° SSW 06:25:11 10° SE visible
22 Jan - 08:18:17 10° WSW 08:22:21 17° SSW 08:27:19 10° S daylight
23 Jan - 01:36:36 10° SSW 01:39:56 20° SSE 01:43:18 10° ESE night (unlit)
23 Jan - 03:38:38 10° WSW 03:42:50 40° S 03:47:50 10° ESE visible
23 Jan - 05:41:33 10° WSW 05:46:05 35° SSW 05:52:08 10° SE visible
23 Jan - 07:45:40 10° WSW 07:49:37 17° SSW 07:54:31 10° S daylight
24 Jan - 01:04:19 10° SSW 01:07:28 18° SSE 01:10:31 10° ESE night (unlit)
24 Jan - 03:06:14 10° WSW 03:10:21 38° S 03:15:00 10° ESE visible
24 Jan - 05:09:10 10° WSW 05:13:31 36° S 05:19:08 10° SE visible
24 Jan - 07:13:06 10° WSW 07:16:57 18° SSW 07:21:42 10° SSE daylight
25 Jan - 00:32:02 10° SSW 00:34:59 16° SSE 00:37:46 10° ESE night (unlit)
25 Jan - 02:33:48 10° WSW 02:37:53 36° S 02:42:14 10° ESE visible
25 Jan - 04:36:47 10° WSW 04:40:59 36° S 04:46:13 10° SE visible
25 Jan - 06:40:34 10° WSW 06:44:19 19° SSW 06:48:55 10° SSE daylight
25 Jan - 23:59:44 10° S 00:02:29 15° SSE 00:05:02 10° ESE night (unlit)
26 Jan - 02:01:19 10° SW 02:05:25 34° S 02:09:33 10° ESE visible
26 Jan - 04:04:22 10° WSW 04:08:29 36° S 04:13:23 10° ESE visible
26 Jan - 06:08:04 10° WSW 06:11:43 19° SSW 06:16:10 10° SSE visible
26 Jan - 23:27:26 10° S 23:29:58 13° SSE 23:32:17 10° ESE night (unlit)
27 Jan - 01:28:46 10° SW 01:32:58 32° SSE 01:36:56 10° ESE night (unlit)
27 Jan - 03:31:54 10° WSW 03:35:59 37° S 03:40:37 10° ESE visible
27 Jan - 05:35:34 10° WSW 05:39:09 20° SSW 05:43:26 10° SSE visible
27 Jan - 22:55:08 10° S 22:57:25 12° SSE 22:59:30 10° SE night (unlit)
28 Jan - 00:56:10 10° SW 01:00:29 30° SSE 01:04:23 10° ESE night (unlit)
28 Jan - 02:59:25 10° WSW 03:03:32 38° S 03:07:55 10° ESE visible
28 Jan - 05:03:04 10° WSW 05:06:36 21° SSW 05:10:45 10° SSE visible
28 Jan - 22:22:52 10° S 22:24:51 12° SSE 22:26:40 10° SE night (unlit)
29 Jan - 00:23:30 10° SW 00:28:00 29° SSE 00:31:53 10° ESE night (unlit)
29 Jan - 02:26:51 10° WSW 02:31:04 38° S 02:35:19 10° ESE visible
29 Jan - 04:30:33 10° WSW 04:34:05 23° SSW 04:38:08 10° SSE visible
29 Jan - 21:50:42 10° SSE 21:52:14 11° SSE 21:53:41 10° SE night (unlit)
29 Jan - 23:50:46 10° SW 23:55:30 28° SSE 23:59:25 10° ESE night (unlit)
30 Jan - 01:54:12 10° WSW 01:58:36 39° S 02:02:45 10° ESE night (unlit)
30 Jan - 03:58:00 10° WSW 04:01:36 24° SSW 04:05:33 10° SE visible
30 Jan - 21:18:53 10° SSE 21:19:37 10° SSE 21:20:19 10° SE night (unlit)
30 Jan - 23:17:59 10° SW 23:22:58 27° SSE 23:26:59 10° ESE night (unlit)
